EST,Max TemperatureF,Mean TemperatureF,Min TemperatureF,Max Dew PointF,MeanDew PointF,Min DewpointF,Max Humidity, Mean Humidity, Min Humidity, Max Sea Level PressureIn, Mean Sea Level PressureIn, Min Sea Level PressureIn, Max VisibilityMiles, Mean VisibilityMiles, Min VisibilityMiles, Max Wind SpeedMPH, Mean Wind SpeedMPH, Max Gust SpeedMPH,PrecipitationIn, CloudCover, Events, WindDirDegrees
2012-11-1,47,42,38,35,31,27,83,66,56,29.73,29.65,29.59,10,10,10,22,13,30,0.00,8,,306
2012-11-2,39,35,31,32,28,23,86,72,54,30.05,29.90,29.73,10,10,10,18,11,26,0.00,8,Rain,323
2012-11-3,37,34,32,31,27,24,84,73,65,30.20,30.15,30.06,10,10,10,13,8,,0.00,8,,318
2012-11-4,40,33,26,28,26,24,92,74,59,30.20,30.18,30.16,10,10,10,10,6,,0.00,5,,323
2012-11-5,38,32,27,27,25,20,91,73,49,30.25,30.20,30.16,10,10,10,13,6,18,0.08,8,,344
2012-11-6,37,34,30,28,24,21,77,66,56,30.16,30.07,30.02,10,10,10,8,2,,0.00,8,,171
2012-11-7,41,38,36,32,29,27,75,67,59,30.17,30.10,30.03,10,10,10,12,5,17,0.00,8,,92
2012-11-8,42,34,26,32,29,23,91,74,59,30.19,30.14,30.07,10,10,10,8,2,,0.00,7,,228
2012-11-9,45,40,36,40,37,32,95,82,73,30.15,30.12,30.09,10,6,2,7,3,,0.00,8,Rain,224
2012-11-10,49,44,39,46,43,39,97,91,83,30.18,30.08,29.93,7,4,1,16,6,22,0.00,7,Rain,118
2012-11-11,64,56,49,47,45,38,86,64,47,29.99,29.93,29.85,10,10,10,22,13,38,0.00,2,,195
2012-11-12,58,44,30,50,35,20,95,74,47,30.15,29.91,29.79,10,10,7,22,15,30,0.11,8,Rain-Snow,232
2012-11-13,39,30,21,23,21,18,92,71,49,30.51,30.36,30.16,10,10,10,17,11,25,0.00,4,,242
2012-11-14,38,28,18,26,21,16,92,74,51,30.57,30.51,30.43,10,10,10,12,5,10,0.00,1,,206
2012-11-15,42,32,21,31,26,19,94,81,58,30.44,30.36,30.31,10,10,7,12,3,16,0.00,1,,209
2012-11-16,46,34,22,35,28,20,96,84,62,30.50,30.43,30.33,10,8,3,10,3,,0.00,2,,22
2012-11-17,48,36,25,37,31,23,99,89,57,30.58,30.54,30.50,10,5,0,8,2,,0.00,5,Fog-Snow,209
2012-11-18,47,36,24,39,31,24,100,95,67,30.54,30.49,30.43,10,2,0,7,1,,0.00,6,Fog-Snow,155
2012-11-19,46,34,22,42,30,22,99,89,61,30.42,30.30,30.16,10,5,0,5,0,,0.00,4,Fog,195
2012-11-20,49,38,28,38,34,28,99,86,63,30.15,30.12,30.07,10,7,0,6,1,,0.00,4,Fog,210
2012-11-21,53,39,25,43,36,25,99,87,65,30.21,30.14,30.04,10,4,0,14,3,16,0.00,4,Fog,202
2012-11-22,57,49,41,46,42,38,97,78,55,30.04,29.89,29.66,10,6,1,23,13,31,0.01,4,Rain,207
2012-11-23,51,40,30,46,30,20,84,70,58,29.86,29.65,29.50,10,10,0,29,17,45,0.00,8,Snow,254
2012-11-24,32,28,25,23,18,15,78,64,50,30.03,29.98,29.87,10,10,7,18,11,28,0.00,6,Snow,298
2012-11-25,32,28,25,28,25,19,94,84,67,29.95,29.83,29.75,10,7,1,16,9,17,0.00,8,Snow,233
2012-11-26,32,28,25,26,22,19,90,73,60,30.25,30.11,29.90,10,10,4,13,8,17,0.00,8,Snow,274
2012-11-27,33,24,14,22,18,13,93,72,49,30.29,30.23,30.13,10,10,10,16,8,20,0.00,1,,239
2012-11-28,35,26,17,25,19,13,89,71,47,30.24,30.16,30.08,10,10,10,18,10,22,0.00,4,Snow,250
2012-11-29,40,30,21,30,26,17,89,79,60,30.28,30.19,30.15,10,10,7,15,9,20,0.00,4,,301
2012-11-30,34,32,30,31,28,24,90,85,77,30.32,30.29,30.26,10,8,5,18,13,25,0.00,8,Snow,75